Regional Weather Roundup
Issued by NWS

Home | Current Version | Previous Version | Text Only | Print | Product List | Glossary Off
Versions: 1 2 3 4 5 6 7 8 9 10 11 12 13 14 15 16 17 18 19 20 21 22 23 24 25 26 27 28 29 30 31 32 33 34 35 36 37 38 39 40 41 42 43 44 45 46 47 48 49 50

000
ASUS43 KDMX 271108
RWRIA

WEATHER ROUNDUP FOR IOWA
NATIONAL WEATHER SERVICE DES MOINES IA
600 AM CDT FRI MAY 27 2016

NOTE: "FAIR" INDICATES FEW OR NO CLOUDS BELOW 12,000 FEET WITH NO
SIGNIFICANT WEATHER AND/OR OBSTRUCTIONS TO VISIBILITY.

* - THESE STATIONS ARE NOT NWS STATIONS...THUS NOT UNDER NWS
QUALITY CONTROL.  THEY ALSO DO NOT REPORT WEATHER SUCH
AS PRECIPITATION OR FOG.

IAZ001>003-012>014-020>022-031>034-043>046-271200-
   NORTHWEST IOWA

CITY           SKY/WX    TMP DP  RH WIND       PRES   REMARKS
CARROLL *      CLOUDY    63  61  94 E7        29.76F
CHEROKEE *     CLOUDY    61  57  88 CALM      29.75S
LE MARS *      CLOUDY    63  55  77 E9        29.74S
ORANGE CITY *  CLOUDY    61  55  82 E5        29.75S
SHELDON *      CLEAR     57  57 100 E6        29.74F
SIOUX CITY     CLOUDY    63  57  81 E6        29.72F
SPENCER        PTCLDY    57  53  86 E6        29.76F
STORM LAKE *   CLOUDY    61  55  82 SE6       29.76F
$$

IAZ055>058-069>071-079>083-090>094-271200-
   SOUTHWEST IOWA

CITY           SKY/WX    TMP DP  RH WIND       PRES   REMARKS
ATLANTIC *     CLOUDY    61  59  94 E9        29.74F
AUDUBON *      LGT RAIN  61  57  88 E5        29.77F
CLARINDA *       N/A     61  61 100 MISG      29.72F
COUNCIL BLFS * CLEAR     61  59  94 CALM      29.72R
CRESTON *      LGT RAIN  61  59  94 NE9       29.76F
HARLAN  *      CLOUDY    61  59  94 E8        29.76F
LAMONI         HVY RAIN  60  60 100 NE7       29.74F FOG
RED OAK *      CLOUDY    61  61 100 E20       29.65F
SHENANDOAH *   MOCLDY    63  63 100 E24G30    29.62F
$$

IAZ047>049-059>061-072>074-084-271200-
   CENTRAL IOWA

CITY           SKY/WX    TMP DP  RH WIND       PRES   REMARKS
AMES           CLOUDY    62  60  93 E6        29.79F
ANKENY *       CLOUDY    61  61 100 CALM      29.78F
BOONE *        CLOUDY    61  61 100 E7        29.78F
CHARITON *     CLOUDY    63  61  94 NE7       29.78F
DES MOINES     CLOUDY    63  59  87 E3        29.79F
GRINNELL*      CLOUDY    63  59  88 NE3       29.82F
KNOXVILLE *    CLOUDY    61  61 100 NE6       29.78F
MARSHALLTOWN   CLOUDY    62  60  93 E5        29.81F
NEWTON *       CLOUDY    63  63 100 NE6       29.80F
PELLA *        CLOUDY    61  61 100 CALM      29.81F
PERRY *          N/A     63  61  94 E3        29.77F
$$

IAZ004>006-015-016-023>025-035-036-271200-
   NORTH CENTRAL IOWA

CITY           SKY/WX    TMP DP  RH WIND       PRES   REMARKS
ALGONA *       MOCLDY    63  57  82 SE8       29.78F
CLARION *      CLOUDY    63  59  88 E12       29.79F
ESTHERVILLE    MOCLDY    59  56  89 E8        29.76F
FORT DODGE *   CLOUDY    63  55  77 E7        29.78F
MASON CITY     CLOUDY    62  58  86 E7        29.82F
FOREST CITY *  CLOUDY    61  55  82 E9        29.80F
WEBSTER CITY * CLOUDY    63  61  94 E8        29.77F
IOWA FALLS *   DRIZZLE   63  59  88 E7        29.82S
$$

IAZ007>011-017>019-026>030-037>042-050>054-066-271200-
   NORTHEAST IOWA

CITY           SKY/WX    TMP DP  RH WIND       PRES   REMARKS
CEDAR RAPIDS   CLOUDY    62  62 100 NW3       29.80S
CHARLES CITY * CLOUDY    63  63 100 E5        29.83F
CLINTON *      MOCLDY    64  61  90 E7        29.82S
DECORAH *      CLOUDY    63  63 100 CALM      29.84F
DUBUQUE        CLOUDY    61  59  93 NE7       29.82F
MONTICELLO *   CLOUDY    63  61  94 CALM      29.81S
OELWEIN *      CLOUDY    63  63 100 SE8       29.85R FOG
WATERLOO       CLOUDY    63  60  90 CALM      29.83R
$$

IAZ064-065-067-068-078-271200-
   EAST CENTRAL IOWA

CITY           SKY/WX    TMP DP  RH WIND       PRES   REMARKS
DAVENPORT      CLOUDY    63  61  93 SE5       29.82R
IOWA CITY      CLOUDY    63  60  90 NE3       29.83R
MT. PLEASANT * CLOUDY    66  64  94 SE10      29.82F
MUSCATINE *    MOCLDY    64  63  94 SE3       29.82R
QUAD CITIES    MOCLDY    64  60  87 SE6       29.82R
$$

IAZ062-063-075>077-085>089-095>099-271200-
   SOUTHEAST IOWA

CITY           SKY/WX    TMP DP  RH WIND       PRES   REMARKS
BURLINGTON     MOCLDY    64  62  93 SE10      29.83S
FAIRFIELD *      N/A    N/A N/A N/A MISG        N/A
FORT MADISON * MOCLDY    64  63  94 SE10      29.83F
KEOKUK *       CLOUDY    64  63  94 SE6       29.81F
OSKALOOSA *    CLOUDY    61  59  94 E7        29.80F
OTTUMWA        CLOUDY    61  59  93 E7        29.79S
WASHINGTON *   PTCLDY    63 N/A N/A SE5       29.82R
$$

ABBREVIATIONS USED IN REMARKS
   TC - TEMPERATURES IN CELSIUS
  WCI - WIND CHILL INDEX
   HX - HEAT INDEX
  VSB - VISIBILITY
$$





USA.gov is the U.S. government's official web portal to all federal, state and local government web resources and services.